, CA

(GMT )
Vandenberg AFB

Weather History for KVBG - October, 2012

Change the Weather History Date:

Friday, October 12, 2012

  Actual Average Record
Temperature  
Mean Temperature 58 °F -  
Max Temperature 66 °F 66 °F 91 °F (2011)
Min Temperature 51 °F 50 °F 39 °F (2008)
Degree Days  
Heating Degree Days 6    
Growing Degree Days 8 (Base 50)    
Moisture  
Dew Point 52 °F    
Average Humidity 82    
Maximum Humidity 97    
Minimum Humidity 56    
Precipitation  
Precipitation 0.00 in - - ()
Sea Level Pressure  
Sea Level Pressure 30.09 in    
Wind  
Wind Speed 6 mph (NNE)    
Max Wind Speed 14 mph    
Max Gust Speed -    
Visibility 10 miles    
Events      
Averages and records for this station are not official NWS values.
T = Trace of Precipitation, MM = Missing Value Source: NWS Daily Summary

Daily Weather History Graph

Daily Weather History Graph

Search for Another Location

Airport or City:

Astronomy

Oct. 12, 2012 Rise Set
Actual Time 7:06 AM PDT 6:30 PM PDT
Civil Twilight 6:40 AM PDT 6:56 PM PDT
Nautical Twilight 6:11 AM PDT 7:25 PM PDT
Astronomical Twilight 5:42 AM PDT 7:54 PM PDT
Moon 4:01 AM PDT (10/12) 4:38 PM PDT (10/12)
Length of Visible Light 12h 15m
Length of Day
11h 24m
Waning Crescent, 10% of the Moon is Illuminated
Oct 12
Waning Crescent
Oct 15
New
Oct 21
First Quarter
Oct 29
Full
Nov 6
Last Quarter

Hourly Weather History & Observations

Time (PDT) Temp. Dew Point Humidity Pressure Visibility Wind Dir Wind Speed Gust Speed Precip Events Conditions
12:55 AM 51.1 °F 48.9 °F 92% 29.98 in 10.0 mi ENE 3.5 mph - N/A   Partly Cloudy
1:55 AM 52.0 °F 50.0 °F 93% 30.00 in 10.0 mi ESE 6.9 mph - N/A   Overcast
2:55 AM 52.0 °F 51.1 °F 97% 29.99 in 10.0 mi East 5.8 mph - N/A   Overcast
3:55 AM 54.0 °F 51.1 °F 90% 29.99 in 10.0 mi East 6.9 mph - N/A   Overcast
4:55 AM 54.0 °F 51.1 °F 90% 30.01 in 10.0 mi East 4.6 mph - N/A   Overcast
5:55 AM 54.0 °F 50.0 °F 86% 30.01 in 10.0 mi East 5.8 mph - N/A   Mostly Cloudy
6:55 AM 51.1 °F 48.0 °F 89% 30.04 in 10.0 mi East 5.8 mph - N/A   Mostly Cloudy
7:55 AM 54.0 °F 50.0 °F 86% 30.06 in 10.0 mi ESE 6.9 mph - N/A   Mostly Cloudy
8:08 AM 55.4 °F 51.8 °F 88% 30.09 in 10.0 mi SE 5.8 mph - N/A   Mostly Cloudy
8:55 AM 57.0 °F 51.1 °F 81% 30.09 in 10.0 mi ESE 4.6 mph - N/A   Mostly Cloudy
9:55 AM 61.0 °F 51.1 °F 70% 30.10 in 10.0 mi Calm Calm - N/A   Mostly Cloudy
10:55 AM 64.0 °F 51.1 °F 63% 30.11 in 10.0 mi WNW 8.1 mph - N/A   Mostly Cloudy
11:55 AM 64.0 °F 51.1 °F 63% 30.13 in 10.0 mi NW 6.9 mph - N/A   Overcast
12:55 PM 64.9 °F 52.0 °F 63% 30.14 in 10.0 mi West 11.5 mph - N/A   Mostly Cloudy
1:55 PM 66.0 °F 50.0 °F 56% 30.13 in 10.0 mi WNW 9.2 mph - N/A   Mostly Cloudy
2:55 PM 64.0 °F 53.1 °F 67% 30.13 in 10.0 mi West 13.8 mph - N/A   Mostly Cloudy
3:55 PM 62.1 °F 54.0 °F 75% 30.13 in 10.0 mi WNW 11.5 mph - N/A   Overcast
4:55 PM 62.1 °F 53.1 °F 72% 30.13 in 10.0 mi WNW 11.5 mph - N/A   Mostly Cloudy
5:55 PM 60.1 °F 54.0 °F 80% 30.14 in 10.0 mi NW 10.4 mph - N/A   Mostly Cloudy
6:55 PM 57.9 °F 53.1 °F 84% 30.14 in 10.0 mi NNW 6.9 mph - N/A   Clear
7:55 PM 55.9 °F 53.1 °F 90% 30.15 in 10.0 mi North 5.8 mph - N/A   Clear
8:55 PM 55.0 °F 53.1 °F 93% 30.16 in 10.0 mi NNW 6.9 mph - N/A   Clear
9:55 PM 55.0 °F 53.1 °F 93% 30.17 in 10.0 mi NW 6.9 mph - N/A   Clear
10:55 PM 54.0 °F 53.1 °F 97% 30.18 in 10.0 mi NNW 3.5 mph - N/A   Clear
11:55 PM 51.1 °F 50.0 °F 96% 30.16 in 7.0 mi East 3.5 mph - N/A   Clear